Location: Newark
(52.3735°N, 16.9806°E)
Time: 22:03:59
(UTC+00:00)

N. Korean satellite - Pass Details

Date: 26 September 2021
Orbit: 450 x 494 km, 97.3° (Epoch: 28 October)

Event Time Altitude Azimuth Distance (km) Brightness Sun altitude
Rises 03:00:13 0° 31° (NNE) 2,531 11.1 -16.5°
Reaches altitude 10° 03:03:26 10° 64° (ENE) 1,658 10.6 -16.0°
Maximum altitude 03:04:54 12° 88° (E) 1,533 10.2 -15.8°
Drops below altitude 10° 03:06:22 10° 113° (ESE) 1,663 10.0 -15.6°
Sets 03:09:35 0° 145° (SE) 2,547 10.5 -15.1°
